Showing default

OPS 6073 (DMSP 4A F2), 2669

Orbit data source: Space-Track

OPS 6073 (DMSP 4A F2), 2669 is a payload satellite owned by USAF SSD (US) in SSO that was launched on Wed, 08 Feb 1967 UTC via a THOR BURNER 2 launch vehicle from the Air Force Western Test Range (AFWTR). Payload-class satellites include a variety of spacecraft equipped with specific instruments for various scientific and technological missions. These include communications satellites like Starlink; space stations such as the ISS; scientific satellites like the Hubble; Earth observation satellites from companies like Planet Labs, Umbra, and HawkEye 360; GPS; miniature CubeSats for education and research; and military/defense satellites.

Loading next visibility...
Identifier
2669, 1967-010A
Orbit
SSO
Country
Flag of USUS
Related business
Manufacturer
RCA/East Windsor
Mission
Non-operational spacecraft
Bus & Motor
DMSP BLOCK 4A, Unknown motor
Mass
79 kg wet, 79 kg dry
Launch date (UTC)
1967-02-08 (59 years ago)
Launch vehicle
THOR BURNER 2
Launch site
Air Force Western Test Range (AFWTR)
Object type
Payload
Rocket body
Debris
Shape & HBR
Unknown
Radar Cross Section
Medium (>0.1 m² and <1 m²)

Expand to show TLE details & history
Last TLE update: 9 hours ago

TLE from 9 hours ago
0 OPS 6073 (DMSP 4A F2)
1 02669U 67010A   26072.47077714  .00000211  00000-0  10309-3 0  9991
2 02669  99.1058  71.1353 0047956 299.0821  60.5560 14.28188394 70679
Epoch: 2026-03-13T11:17Z
TLE epoch observation values (Epoch: 2026-03-13T11:17:55.144Z)
Latitude
-0.00012°
Longitude
90.54971°
Altitude
783.911 km
Speed
7.471 km/s
True Right ascension
04h 44m 32s
True Declination
0° 00' 00"
Sunlit
Object was in daylight at epoch
Visualization orbit readout
Latitude
Unknown
Longitude
Unknown
Altitude
Unknown
Speed
Unknown
Apparent Right ascension
Unknown
Apparent Declination
Unknown
Sunlit
N/A
Visualization observer readout
Local Sidereal Time
00:49:55
Azimuth
Unknown
Elevation
Unknown
Doppler factor
Unknown
Orbital elements
Apogee altitude
829.359 km
Perigee altitude
760.56 km
Semi-major axis
7,173.097 km
Eccentricity
0.0048
Inclination
99.1058°
RAAN
71.1353°
Arg. of periapsis
299.0821°
True anomaly
61.03596°
Mean anomaly
60.556°
Eccentric anomaly
60.79584°
Mean motion
3.57259 °/min
Orbital period
100.77 mins
BSTAR
0.00010309
Loading maneuver chart data...
Computing Atmospheric mass density...
Loading historical data...
Loading historical data...
Loading historical data...
Loading historical data...
Loading historical data...
Loading historical data...
Loading historical data...
Other satellites on launch #10 in the year 1967 (1967-02-08 UTC)

Documentation

Showing up to 5 results
|